Starlink 11493

operational
NORAD ID: 62410 Int'l Des: 2024-249 Owner: SPXS Country: US Constellation: starlink
LEOCIRCULAR

About Starlink 11493

Description loading...

Live Position

Loading 3D Globe...

Upcoming Passes

Altitude History

Altitude vs Time

uPlot chart will show altitude changes over time

Two-Line Element Set

1 62410U 24249B 25304.98054624 .00157177 00000-0 12021-2 0 9992
2 62410 43.0006 223.8696 0001792 256.9641 103.1027 15.70905209 49236
Epoch: Oct 31, 2025 • Age: 35 hours

Current Status

Altitude 367.0 km
Velocity 7.69 km/s
Sub-Earth Point -42.78°S, 79.38°W
Launch Date Dec 23, 2024
Age 0.8 years
Type internet

Technical Details

Classification Payload
Mass 960.00 kg
Dry Mass 910.00 kg
Total Mass 960.00 kg
Length 0.30 m
Diameter 4.10 m
Span 29.00 m
Shape Box + pan
Manufacturer SPXS
Bus Type Starlink V2MD
Phase Status In Orbit
Owner/State SPXS/US

Large Constellations

Loading constellations...